Probability
0 0 0 0 0 0 0 0 0 0 0 0 0 0 0 0 0 0 0 0 0 0 0 0 0 0 0 0 0 0 0 0 0 0 0 0 0 0 0 0 0 0 0 0
0 0 0 0 0 0 0 0 0 0 0 0 0 0 0 0 0 0 0 0 0 0 0 0 0 0 0 0 0 0 0 0 0 0 0 0 0 0 0 0 0 0 0 0
0 0 0 0 0 0 0 0 0 0 0 0 0 0 0 0 0 0 0 0 0 0 0 0 0 0 0 0 0 0 0 0 0 0 0 0 0 0 0 0 0 0 0 0
0 0 0 0 0 0 0 0 0 0 0 0 0 0 0 0 0 0 0 0 0 0 0 0 0 0 0 0 0 0 0 0 0 0 0 0 0 0 0 0 0 0 0 0
0 0 0 0 0 0 0 0 0 0 0 0 0 0 0 0 0 0 0 0 0 0 0 0 0 0 0 0 0 0 0 0 0 0 0 0 0 0 0 0 0 0 0 0
0 0 0 0 0 0 0 0 0 0 0 0 0 0 0 0 0 0 0 0 0 0 0 1 1 1 0 0 0 0 0 0 0 0 0 0 0 0 0 0 0 0 0 0
0 0 0 0 0 0 0 0 0 0 0 0 0 0 0 0 0 0 0 0 0 0 0 1 1 1 0 0 0 0 0 0 0 0 0 0 0 0 0 0 0 0 0 0
0 0 0 0 0 0 0 0 0 0 0 0 0 0 0 0 0 0 0 0 0 0 0 0 0 0 0 0 0 0 0 0 0 0 0 0 0 0 0 0 0 0 0 0
0 0 0 0 0 0 0 0 0 0 0 0 0 0 0 0 0 0 0 0 0 0 0 0 0 0 0 0 0 0 0 0 0 0 0 0 0 0 0 0 0 0 0 0
0 0 0 0 0 0 0 0 0 0 0 0 0 0 0 0 0 0 0 0 0 0 0 0 0 0 0 0 0 0 0 0 0 0 0 0 0 0 0 0 0 0 0 0
0 0 0 0 0 0 0 0 0 0 0 0 0 0 0 0 0 0 0 0 0 0 0 0 0 0 0 0 0 0 0 0 0 0 0 0 0 0 0 0 0 0 0 0
0 0 0 0 0 0 0 0 0 0 0 0 0 0 0 0 0 0 0 0 0 0 0 0 0 1 1 1 0 0 0 0 0 0 0 0 0 0 0 0 0 0 0 0
0 0 0 0 0 0 0 0 0 0 0 0 0 0 0 0 0 0 0 0 0 0 0 1 1 1 2 2 1 0 0 0 0 0 0 0 0 0 0 0 0 0 0 0
0 0 0 0 0 0 0 0 0 0 0 0 0 0 0 0 0 0 0 0 0 0 0 1 2 2 2 2 1 0 0 0 0 0 0 0 0 0 0 0 0 0 0 0
0 0 0 0 0 0 0 0 0 0 0 0 0 0 0 0 0 0 0 0 0 0 0 1 1 1 1 1 1 0 0 0 0 0 0 0 0 0 0 0 0 0 0 0
0 0 0 0 0 0 0 0 0 0 0 0 0 0 0 0 0 0 0 0 0 0 0 0 0 0 0 0 0 0 0 0 0 0 0 0 0 0 0 0 0 0 0 0
0 0 0 0 0 0 0 0 0 0 0 0 0 0 0 0 0 0 0 0 0 0 0 0 0 0 0 0 0 0 0 0 0 0 0 0 0 0 0 0 0 0 0 0
0 0 0 0 0 0 0 0 0 0 0 0 0 0 0 0 0 0 0 0 0 0 0 0 0 0 0 0 0 0 0 0 0 0 0 0 0 0 0 0 0 0 0 0
0 0 0 0 0 0 0 0 0 0 0 0 0 0 0 0 0 0 0 0 0 0 0 0 0 0 0 0 0 0 0 0 0 0 0 0 0 0 0 0 0 0 0 0
0 0 0 0 0 0 0 0 0 0 0 0 0 0 0 0 0 0 0 0 0 0 0 0 0 0 0 0 0 0 0 0 0 0 0 0 0 0 0 0 0 0 0 0
0 0 0 0 0 0 0 0 0 0 0 0 0 0 0 0 0 0 0 0 0 0 0 0 0 0 0 0 0 0 0 0 0 0 0 0 0 0 0 0 0 0 0 0
0 0 0 0 0 0 0 0 0 0 0 0 0 0 0 0 0 0 0 0 0 0 0 0 0 0 0 0 0 0 0 0 0 0 0 0 0 0 0 0 0 0 0 0
0 0 0 0 0 0 0 0 0 0 0 0 0 0 0 0 0 0 0 0 0 0 0 0 0 0 0 0 0 0 0 0 0 0 0 0 0 0 0 0 0 0 0 0
0 0 0 0 0 0 0 0 0 0 0 0 0 0 0 0 0 0 0 0 0 0 0 0 0 0 0 0 0 0 0 0 0 0 0 0 0 0 0 0 0 0 0 0
0 0 0 0 0 0 0 0 0 0 0 0 0 0 0 0 0 0 0 0 0 0 0 0 0 0 0 0 0 0 0 0 0 0 0 0 0 0 0 0 0 0 0 0
0 0 0 0 0 0 0 0 0 0 0 0 0 0 0 0 0 0 0 0 0 0 0 0 0 0 0 0 0 0 0 0 0 0 0 0 0 0 0 0 0 0 0 0
Wind_Speed
2 4 3 5 5 3 4 4 2 2 1 2 3 3 4 4 4 5 5 5 6 6 4 3 4 4 4 4 4 4 4 3 3 2 2 2 1 1 2 2 2 3 3 3
4 1 4 3 3 3 3 3 2 1 0 2 2 3 4 5 6 7 7 7 7 6 3 3 4 4 5 5 5 4 4 4 3 3 2 2 2 1 1 1 2 3 3 3
4 3 3 4 3 3 2 4 4 3 1 2 1 2 3 4 4 5 5 6 6 8 7 5 5 5 5 5 6 5 5 4 3 4 3 3 3 3 2 2 2 2 2 3
2 2 3 3 3 4 3 4 4 3 3 1 2 3 5 4 4 6 7 6 7 6 6 6 6 6 6 6 5 5 5 4 4 4 5 4 3 2 1 0 1 2 2 2
3 2 3 3 4 5 3 2 3 2 2 0 0 2 6 2 5 8 9 9 8 7 7 7 7 7 6 6 5 5 5 4 4 4 5 5 3 2 1 1 2 2 2 2
2 2 3 3 1 3 4 5 5 4 3 1 3 3 6 4 8 7 7 8 8 8 7 6 5 5 4 5 5 5 5 4 4 4 4 5 5 4 3 2 2 1 1 2
2 1 1 2 3 2 4 5 3 2 1 4 2 3 8 6 6 7 8 8 8 8 7 6 6 6 6 6 6 6 6 5 4 5 4 4 5 5 4 3 2 2 1 1
2 3 3 3 5 5 4 6 6 4 4 3 1 5 7 5 3 4 5 6 7 8 8 8 7 7 7 7 7 6 6 5 5 5 4 4 4 3 2 3 2 2 1 1
6 4 1 2 3 8 5 3 4 5 2 1 4 5 7 1 1 1 3 5 6 8 8 8 7 7 7 7 8 8 7 6 5 5 5 4 4 4 3 3 2 2 1 1
6 3 1 1 4 2 5 7 4 4 3 2 4 4 4 3 3 2 3 5 6 6 7 7 7 7 7 7 6 6 6 6 5 5 4 4 4 4 4 3 3 2 2 1
4 4 1 2 4 5 4 4 4 4 4 4 3 7 5 6 5 5 5 5 6 7 8 7 7 7 6 5 5 6 6 5 5 5 4 4 4 4 4 3 3 3 2 2
4 5 2 4 3 4 4 6 6 4 3 4 3 7 4 3 3 4 4 4 4 5 6 6 6 6 6 6 6 6 6 6 6 5 5 5 4 4 4 3 3 3 3 2
5 5 2 3 3 1 2 3 4 5 4 4 3 7 3 1 1 2 3 4 4 4 4 4 5 6 7 7 6 6 6 6 5 5 5 5 4 4 4 3 3 3 3 3
5 4 6 7 6 4 3 3 5 5 4 4 6 6 4 2 2 2 3 3 4 4 5 5 6 6 6 6 7 7 6 6 6 6 6 5 5 5 4 4 4 3 3 3
4 3 3 4 3 4 4 5 6 6 7 7 7 6 6 6 5 4 3 3 3 4 5 6 6 5 5 5 5 6 6 6 6 6 6 5 4 4 4 4 4 3 3 3
2 3 2 1 2 4 3 5 7 6 5 5 4 6 5 3 3 3 4 5 4 4 5 6 6 6 6 6 6 6 6 7 7 7 6 5 5 5 4 4 4 4 4 3
2 4 4 2 2 1 4 6 7 5 5 6 6 7 2 2 4 5 5 5 5 5 5 6 7 7 7 7 7 7 7 7 7 7 6 6 6 6 5 5 5 4 4 4
5 3 3 2 2 4 7 3 5 5 4 5 4 3 3 4 3 2 3 5 5 5 5 5 6 6 6 6 6 6 6 7 7 6 6 6 6 6 6 5 5 4 3 4
5 6 4 3 3 5 5 2 5 5 3 4 5 3 1 2 3 1 2 4 5 6 5 5 6 6 6 6 6 7 7 6 6 6 6 6 6 6 6 6 6 4 4 3
3 4 4 4 3 5 6 3 3 4 3 4 6 6 4 4 2 4 2 3 3 3 3 3 4 4 5 5 7 7 7 7 7 7 6 6 6 7 7 7 5 4 4 4
3 3 4 4 4 7 6 2 4 4 7 4 6 6 6 6 5 3 2 2 2 2 2 3 5 5 6 6 8 7 7 7 6 5 6 6 6 6 6 6 5 5 5 4
6 5 5 4 3 7 3 4 6 7 3 4 5 5 6 4 2 2 2 1 2 1 2 3 5 4 5 7 8 7 6 5 5 6 6 6 5 5 5 6 5 5 5 5
5 7 6 8 7 5 3 5 4 3 3 3 4 4 5 4 3 2 2 1 1 2 2 3 5 5 4 5 7 7 5 5 6 6 6 5 5 5 5 6 6 5 4 4
3 2 4 3 5 4 3 3 2 3 3 3 4 5 6 5 4 3 3 2 2 2 2 3 5 5 4 4 5 5 5 6 7 7 6 5 6 5 4 4 4 5 5 4
4 4 3 3 4 3 3 3 3 2 2 3 3 3 5 6 5 4 3 3 2 2 1 3 5 5 5 5 4 4 5 7 7 7 6 5 5 5 5 4 3 4 4 5
5 6 6 6 6 5 5 3 3 4 4 5 4 3 3 5 5 4 3 3 3 2 2 3 4 4 4 4 4 4 5 7 8 7 6 5 4 4 4 5 3 2 3 4
Wind_Direction
60 85 170 197 188 171 152 148 174 235 200 145 185 212 225 203 197 207 205 204 207 222 218 183 170 156 147 149 151 150 142 141 128 112 104 95 75 43 39 44 70 85 89 90
54 261 226 165 148 131 137 143 179 293 175 150 190 246 234 207 207 206 206 208 208 210 200 182 170 162 167 168 165 154 158 155 151 132 122 120 113 85 59 41 57 66 84 91
168 236 162 137 140 147 170 178 188 181 79 55 106 298 250 235 222 217 210 207 206 203 200 195 182 178 172 178 177 172 168 158 154 141 114 90 66 53 45 36 36 34 72 83
208 251 144 147 177 161 208 207 180 162 137 247 165 269 268 226 228 226 220 208 206 204 196 192 186 185 184 187 176 166 163 155 150 146 139 136 130 122 129 97 66 48 61 78
226 181 153 184 204 167 187 133 128 143 141 68 204 216 281 216 231 234 222 211 207 199 192 192 195 193 188 175 166 161 153 147 146 144 146 138 130 127 108 80 75 57 46 58
232 205 182 193 154 138 120 77 59 54 74 271 224 190 273 228 219 222 215 209 203 195 191 194 191 175 169 158 155 154 151 151 148 143 140 144 145 141 130 110 97 68 48 44
320 288 219 148 114 85 99 96 53 11 359 256 232 206 251 246 223 212 211 207 198 187 183 182 179 175 170 162 162 160 158 160 157 149 152 156 153 151 153 149 143 131 99 62
180 267 221 178 166 164 162 144 157 191 219 272 261 237 257 260 241 213 203 193 183 180 181 184 187 181 176 172 168 165 167 168 163 158 158 156 152 147 150 150 144 148 156 168
179 241 253 180 150 137 143 173 163 133 152 248 266 277 298 296 334 156 170 168 182 186 184 184 183 180 176 176 178 175 173 169 169 167 157 156 157 153 152 147 139 139 136 137
161 201 264 135 87 55 142 144 110 124 148 259 289 272 255 263 240 194 182 184 187 180 179 178 179 181 181 180 176 172 171 171 169 165 167 163 161 156 151 144 145 143 135 114
147 157 250 132 176 176 124 122 120 128 154 161 264 273 236 225 209 196 200 196 187 181 180 180 183 180 173 165 166 169 169 164 165 169 166 152 153 149 148 149 153 149 136 136
147 129 192 239 242 175 159 162 148 152 200 174 187 268 285 236 205 192 198 194 189 184 179 175 171 162 158 167 174 173 170 169 171 165 153 152 147 142 148 152 150 140 136 136
147 125 105 355 344 127 153 158 150 128 127 160 181 264 314 9 153 183 191 191 179 174 166 160 159 164 169 174 176 175 171 171 164 155 150 147 149 152 156 153 144 139 137 129
129 134 166 193 214 195 193 176 158 137 159 197 220 250 283 279 241 226 207 183 169 171 170 164 168 175 176 176 177 175 175 171 162 156 156 159 166 165 160 150 142 140 136 131
126 170 206 224 214 180 200 202 187 189 189 193 228 231 246 229 215 208 188 157 154 170 175 172 175 179 177 172 174 173 171 169 165 160 164 170 162 150 144 140 138 133 131 132
108 162 165 271 217 188 215 220 202 204 197 214 230 255 257 216 170 173 175 167 173 188 195 184 177 178 180 180 177 171 171 171 164 165 169 161 150 147 148 146 140 133 126 123
132 143 148 234 288 109 244 220 196 198 197 185 211 237 236 179 190 194 185 181 186 197 197 186 181 187 188 187 181 179 177 168 166 168 165 160 157 156 155 149 138 140 141 135
151 135 139 146 96 227 245 233 188 184 210 203 206 216 198 201 193 177 171 180 193 196 194 190 187 187 184 181 175 165 157 161 166 166 165 163 161 160 152 144 146 145 138 142
163 145 132 140 186 268 288 233 171 169 238 214 195 196 176 136 81 357 205 186 194 198 197 194 188 181 173 169 163 152 155 158 161 168 169 168 164 160 155 156 158 152 143 144
109 122 127 140 167 229 248 240 183 127 260 232 184 187 172 124 122 258 230 190 197 201 201 183 162 150 159 166 154 150 157 160 174 179 173 167 164 162 163 162 155 145 146 150
124 109 146 161 198 254 253 234 126 157 236 210 181 183 171 181 200 218 172 182 190 191 191 160 153 161 168 160 152 156 163 180 184 166 153 153 158 159 155 149 146 142 140 132
167 158 173 154 183 248 246 139 172 210 208 170 176 179 179 185 152 131 135 143 140 145 142 149 153 156 153 156 155 159 176 181 155 143 144 147 148 151 145 141 141 142 141 136
188 183 179 185 208 236 218 208 223 178 171 179 173 180 163 158 165 155 140 127 122 146 147 146 146 139 142 158 161 164 175 153 140 137 142 142 137 137 140 142 143 140 142 145
241 156 152 222 257 255 249 248 243 201 196 187 167 160 157 160 164 153 141 131 117 122 136 136 135 137 148 157 158 164 155 146 139 140 141 138 134 130 128 135 144 148 154 155
210 161 162 236 271 298 291 249 225 185 149 130 128 149 159 152 157 157 154 155 149 118 113 133 144 150 155 153 152 149 144 141 137 139 140 138 135 135 130 129 141 157 169 172
203 180 175 213 220 198 236 243 198 172 178 165 146 137 148 157 157 151 153 155 142 127 119 129 134 142 147 146 145 143 145 145 142 142 145 145 140 138 136 131 106 80 128 150